Shannon, Ireland

11:55 PM IST on May 25, 2017 (GMT +0100)
Shannon

Weather History for EINN - December, 2011

Change the Weather History Date:

Sunday, December 11, 2011

  Actual Average Record
Temperature  
Mean Temperature 42 °F -  
Max Temperature 44 °F 48 °F 57 °F (1998)
Min Temperature 39 °F 38 °F 35 °F (2007)
Degree Days  
Heating Degree Days 24    
Moisture  
Dew Point 40 °F    
Average Humidity 91    
Maximum Humidity 100    
Minimum Humidity 81    
Precipitation  
Precipitation 0.20 in 0.13 in - ()
Sea Level Pressure  
Sea Level Pressure 29.58 in    
Wind  
Wind Speed 9 mph ()    
Max Wind Speed 20 mph    
Max Gust Speed 38 mph    
Visibility 6.3 miles    
Events Rain    
Averages and records for this station are not official NWS values.
T = Trace of Precipitation, MM = Missing Value Source: Averaged Metar Reports

Daily Weather History Graph

Daily Weather History Graph

Search for Another Location

Airport or City:

Trip Planner

Search our weather history database for the weather conditions in past years. The results will help you decide how hot, cold, wet, or windy it might be!

Date:

Astronomy

Dec. 11, 2011 Rise Set
Actual Time 8:36 AM GMT 4:20 PM GMT
Civil Twilight 7:55 AM GMT 5:02 PM GMT
Nautical Twilight 7:11 AM GMT 5:46 PM GMT
Astronomical Twilight 6:29 AM GMT 6:28 PM GMT
Moon 5:17 PM GMT (12/11) 9:15 AM GMT (12/11)
Length of Visible Light 9h 06m
Length of Day
7h 43m
Full, 99% of the Moon is Illuminated
Dec 11
Full
Dec 18
Last Quarter
Dec 24
New
Jan 1
First Quarter
Jan 9
Full

Hourly Weather History & Observations

Time (GMT) Temp. Windchill Dew Point Humidity Pressure Visibility Wind Dir Wind Speed Gust Speed Precip Events Conditions
12:00 AM 46.4 °F 41.5 °F 44.6 °F 93% 29.74 in 6.2 mi SW 10.4 mph - N/A   Light Drizzle
12:30 AM 46.4 °F 41.9 °F 44.6 °F 93% 29.74 in 4.3 mi WSW 9.2 mph - N/A   Light Drizzle
1:00 AM 46.4 °F 41.5 °F 44.6 °F 93% 29.71 in 6.2 mi SW 10.4 mph - N/A   Mostly Cloudy
1:30 AM 46.4 °F 41.5 °F 44.6 °F 93% 29.71 in 6.2 mi SW 10.4 mph - N/A   Mostly Cloudy
2:00 AM 46.4 °F 41.9 °F 44.6 °F 93% 29.68 in 6.2 mi SW 9.2 mph - N/A   Mostly Cloudy
2:30 AM 46.4 °F 42.4 °F 44.6 °F 93% 29.68 in 6.2 mi SW 8.1 mph - N/A   Mostly Cloudy
3:00 AM 44.6 °F 41.4 °F 44.6 °F 100% 29.68 in 6.2 mi SW 5.8 mph - N/A   Light Drizzle
3:30 AM 44.6 °F 40.7 °F 42.8 °F 93% 29.68 in 6.2 mi SW 6.9 mph - N/A   Mostly Cloudy
4:00 AM 44.6 °F 39.7 °F 42.8 °F 93% 29.65 in 6.2 mi SW 9.2 mph - N/A   Mostly Cloudy
4:30 AM 44.6 °F 39.7 °F 42.8 °F 93% 29.65 in 6.2 mi SW 9.2 mph - N/A   Mostly Cloudy
5:00 AM 44.6 °F 40.7 °F 42.8 °F 93% 29.62 in 6.2 mi SSW 6.9 mph - N/A   Mostly Cloudy
5:30 AM 44.6 °F 39.7 °F 42.8 °F 93% 29.62 in 6.2 mi SSW 9.2 mph - N/A   Mostly Cloudy
6:00 AM 45 °F - 42 °F 86% 29.64 in 12 mi SW 11.2 mph - -   Partly Cloudy
6:00 AM 44.6 °F 38.8 °F 42.8 °F 93% 29.62 in 6.2 mi SW 11.5 mph - N/A   Mostly Cloudy
6:30 AM 44.6 °F 42.2 °F 42.8 °F 93% 29.62 in 6.2 mi WSW 4.6 mph - N/A   Mostly Cloudy
7:00 AM 42.8 °F 40.1 °F 42.8 °F 100% 29.59 in 6.2 mi SW 4.6 mph - N/A   Mostly Cloudy
7:30 AM 44.6 °F 39.7 °F 41.0 °F 87% 29.59 in 6.2 mi SSW 9.2 mph - N/A   Mostly Cloudy
8:00 AM 44.6 °F 38.1 °F 42.8 °F 93% 29.59 in 6.2 mi SW 13.8 mph - N/A Rain Light Rain Showers
8:30 AM 44.6 °F 40.2 °F 42.8 °F 93% 29.59 in 6.2 mi SW 8.1 mph - N/A   Mostly Cloudy
9:00 AM 44.6 °F 37.4 °F 42.8 °F 93% 29.59 in 3.7 mi WSW 16.1 mph - N/A Rain Light Rain Showers
9:30 AM 42.8 °F 36.6 °F 41.0 °F 93% 29.56 in 6.2 mi SW 11.5 mph - N/A   Mostly Cloudy
10:00 AM 42.8 °F 37.0 °F 41.0 °F 93% 29.56 in 6.2 mi SW 10.4 mph - N/A Rain Light Rain Showers
10:30 AM 42.8 °F 36.6 °F 41.0 °F 93% 29.56 in 5.0 mi SW 11.5 mph - N/A Rain Light Rain Showers
11:00 AM 41.0 °F 32.8 °F 39.2 °F 93% 29.59 in 5.0 mi West 16.1 mph - N/A Rain Light Rain Showers
11:30 AM 41.0 °F 34.7 °F 39.2 °F 93% 29.59 in 6.2 mi West 10.4 mph - N/A Rain Light Rain Showers
12:00 PM 41 °F - 39 °F 91% 29.58 in 12 mi WSW 6.7 mph - - Rain Light Rain Showers
12:00 PM 41.0 °F 36.4 °F 39.2 °F 93% 29.56 in 6.2 mi WSW 6.9 mph - N/A   Mostly Cloudy
12:30 PM 41.0 °F 39.0 °F 39.2 °F 93% 29.56 in 6.2 mi South 3.5 mph - N/A   Mostly Cloudy
1:00 PM 42.8 °F 38.0 °F 39.2 °F 87% 29.53 in 6.2 mi WSW 8.1 mph - N/A   Mostly Cloudy
1:30 PM 42.8 °F 37.0 °F 41.0 °F 93% 29.53 in 6.2 mi SSW 10.4 mph - N/A   Mostly Cloudy
2:00 PM 42.8 °F 37.5 °F 41.0 °F 93% 29.53 in 6.2 mi SW 9.2 mph - N/A Rain Light Rain Showers
2:30 PM 41.0 °F 33.5 °F 37.4 °F 87% 29.53 in 5.6 mi WSW 13.8 mph 38.0 mph N/A Rain Light Rain Showers
3:00 PM 39.2 °F 33.6 °F 37.4 °F 93% 29.53 in 6.2 mi WSW 8.1 mph - N/A   Mostly Cloudy
3:30 PM 41.0 °F 34.3 °F 37.4 °F 87% 29.53 in 6.2 mi SW 11.5 mph - N/A Rain Light Rain Showers
4:00 PM 41.0 °F 33.9 °F 37.4 °F 87% 29.53 in 6.2 mi SW 12.7 mph - N/A   Scattered Clouds
4:30 PM 41.0 °F 33.5 °F 35.6 °F 81% 29.53 in 6.2 mi SW 13.8 mph - N/A   Mostly Cloudy
5:00 PM 41.0 °F 34.3 °F 37.4 °F 87% 29.53 in 6.2 mi SW 11.5 mph - N/A   Scattered Clouds
5:30 PM 41.0 °F 34.7 °F 37.4 °F 87% 29.53 in 6.2 mi SW 10.4 mph - N/A   Scattered Clouds
6:00 PM 41 °F - 38 °F 83% 29.56 in 9 mi SW 11.2 mph - - Rain Light Rain Showers
6:00 PM 41.0 °F 34.7 °F 37.4 °F 87% 29.53 in 6.2 mi SW 10.4 mph - N/A Rain Light Rain Showers
6:30 PM 39.2 °F 33.0 °F 37.4 °F 93% 29.53 in 6.2 mi SW 9.2 mph - N/A   Mostly Cloudy
7:00 PM 39.2 °F 32.0 °F 35.6 °F 87% 29.53 in 6.2 mi South 11.5 mph - N/A   Mostly Cloudy
7:30 PM 41.0 °F 34.3 °F 37.4 °F 87% 29.53 in 6.2 mi SSW 11.5 mph - N/A   Partly Cloudy
8:00 PM 39.2 °F 31.6 °F 37.4 °F 93% 29.53 in 6.2 mi SSW 12.7 mph - N/A Rain Light Rain Showers
8:30 PM 41.0 °F 32.8 °F 37.4 °F 87% 29.53 in 6.2 mi SW 16.1 mph - N/A   Partly Cloudy
9:00 PM 41.0 °F 31.9 °F 37.4 °F 87% 29.53 in 6.2 mi WSW 19.6 mph 38.0 mph N/A   Mostly Cloudy
9:30 PM 41.0 °F 33.9 °F 39.2 °F 93% 29.53 in 6.2 mi SW 12.7 mph - N/A Rain Light Rain Showers
10:00 PM 41.0 °F 33.1 °F 39.2 °F 93% 29.53 in 6.2 mi SW 15.0 mph - N/A   Mostly Cloudy
10:30 PM 42.8 °F 34.5 °F 39.2 °F 87% 29.53 in 6.2 mi WSW 18.4 mph - N/A Rain Light Rain Showers
11:00 PM 41.0 °F 33.1 °F 37.4 °F 87% 29.56 in 6.2 mi WSW 15.0 mph - N/A   Mostly Cloudy
11:30 PM 41.0 °F 33.5 °F 37.4 °F 87% 29.53 in 6.2 mi WSW 13.8 mph - N/A   Partly Cloudy